Regional Weather Roundup
Issued by NWS Albany, NY

Home | Current Version | Previous Version | Graphics & Text | Print | Product List | Glossary On
Versions: 1 2 3 4 5 6 7 8 9 10 11 12 13 14 15 16 17 18 19 20 21 22 23 24 25 26 27 28 29 30 31 32 33 34 35 36 37 38 39 40 41 42 43 44 45 46 47 48 49 50
072
ASUS41 KALY 230910
RWRALY

NEW YORK STATE HOURLY WEATHER ROUNDUP
NATIONAL WEATHER SERVICE ALBANY NY
400 AM EST MON JAN 23 2017

NOTE: "FAIR" INDICATES FEW OR NO CLOUDS BELOW 12,000 FEET WITH NO
SIGNIFICANT WEATHER AND/OR NO OBSTRUCTIONS TO VISIBILITY.

NYZ032-033-038>043-046>054-057>066-NYZ062>081-082-084-231000-
EAST


CITY           SKY/WX    TMP DP  RH WIND       PRES   REMARKS
ALBANY         CLOUDY    38  32  79 NE6       29.92S WCI  33
GLENS FALLS    CLOUDY    36  31  82 N5        29.94S WCI  32
POUGHKEEPSIE   CLOUDY    40  34  79 NE14G21   29.85F WCI  32
MONTGOMERY     CLOUDY    41  35  79 NE10      29.83S
WHITE PLAINS   MOCLDY    42  36  79 E8G21     29.82R
ISLIP          CLOUDY    42  38  85 E16G26    29.84R
NEW YORK CITY  CLOUDY    43  38  82 E24G30    29.84R
CENTRAL PARK   CLOUDY    42  38  85 E21G33    29.85R
$$

NYZ005>009-017-018-044>046-055-056-231000-
CENTRAL


CITY           SKY/WX    TMP DP  RH WIND       PRES   REMARKS
FULTON         CLOUDY    40  36  86 E8G17     29.79F WCI  34
SYRACUSE       DRIZZLE   39  36  89 E12       29.79F WCI  32
ROME           CLOUDY    39  33  79 E16G26    29.86F WCI  30
ELMIRA         CLOUDY    48  40  73 E7G20     29.73R
BINGHAMTON     CLOUDY    38  35  89 SE16G24   29.75S WCI  29
MONTICELLO     CLOUDY    36  34  93 E16G22    29.81S WCI  26
$$

NYZ026>034-041>043-087-231000-
NORTH


CITY           SKY/WX    TMP DP  RH WIND       PRES   REMARKS
WATERTOWN      CLOUDY    34  32  92 NE10      29.86R WCI  26
FORT DRUM      NOT AVBL
OGDENSBURG     MIX PCPN  31  29  94 NE13G18   29.93F WCI  21
MASSENA        CLOUDY    30  26  85 NE12      29.98R WCI  20
SARANAC LAKE   CLOUDY    31  29  92 NE6       29.86R WCI  25
PLATTSBURGH    CLOUDY    32  31  96 CALM      29.99R
$$

NYZ001>004-010>016-019>021-085-231000-
WEST


CITY           SKY/WX    TMP DP  RH WIND       PRES   REMARKS
NIAGARA FALLS  CLOUDY    38  34  85 E18       29.72F FOG     WCI  28
BUFFALO        CLOUDY    37  36  96 NE13      29.71F FOG     WCI  29
DUNKIRK        CLOUDY    37  37 100 NE14      29.66R FOG     WCI  28
JAMESTOWN        N/A     48  43  81 E7        29.62S
WELLSVILLE     CLOUDY    47  44  90 SE16G24   29.67F FOG
ROCHESTER      CLOUDY    39  37  92 E8        29.76S FOG     WCI  33
PENN YAN       FOG       39  37  92 CALM      29.74F VSB 3/4
$$

             KEY
       WCI = WIND CHILL INDEX
       VSB = VISIBILITY
       HX  = HEAT INDEX
$$




USA.gov is the U.S. government's official web portal to all federal, state and local government web resources and services.